User: anonymous   Login
Location: Unspecified
(0.0000°N, 0.0000°E)
Time: 23:23:40
(UTC+00:00)
Language:

DSP F6R - Orbit

View from above orbital plane
View from above orbital plane
View from above satellite
View from above satellite

Ground track
Ground track

The orbit data is extracted from the following two-line orbital elements,

1 15453U 84129A   17288.04247046 0.00000000  00000-0  00000-0 0    08
2 15453  15.8276 349.6407 0003659 241.2657 118.6841  0.98849686    09
Epoch (UTC): 15 October 2017 01:01:09
Eccentricity: 0.0003659
inclination: 15.8276°
perigee height: 36174 km
apogee height: 36205 km
right ascension of ascending node: 349.6407°
argument of perigee: 241.2657°
revolutions per day: 0.98849686
mean anomaly at epoch: 118.6841°
orbit number at epoch: 0

The dashed part of the orbit path shows where the satellite is in the earth's shadow,  

DLR